| time (UTC) | temp F | wind direction | speed knots | gust knots | rain 1hr in | rain 24hr in | rain mn in | humidity % | barometer mb |
| 20260506043034 | 56 | 156 | 1.7 | 3.5 | 0.00 | 0.00 | 0.00 | 80 | 1018.8 |
| 20260506034535 | 57 | 162 | 1.7 | 3.5 | 0.00 | 0.00 | 0.00 | 78 | 1018.3 |
| 20260506033035 | 60 | 131 | 2.6 | 3.5 | 0.00 | 0.00 | 0.00 | 73 | 1018.2 |
| 20260506031536 | 64 | 200 | 0.9 | 3.5 | 0.00 | 0.00 | 0.00 | 64 | 1017.9 |
| 20260506021537 | 68 | 322 | 0.9 | 2.6 | 0.00 | 0.00 | 0.00 | 56 | 1017.7 |
| 20260506020150 | 69 | 327 | 1.7 | 6.1 | 0.00 | 0.00 | 0.00 | 56 | 1017.6 |
| 20260506014609 | 70 | 347 | 2.6 | 7.8 | 0.00 | 0.00 | 0.00 | 54 | 1017.4 |
| 20260506013036 | 71 | 341 | 3.5 | 8.7 | 0.00 | 0.00 | 0.00 | 52 | 1017.3 |
| 20260506011535 | 72 | 347 | 2.6 | 6.1 | 0.00 | 0.00 | 0.00 | 51 | 1017.3 |
| 20260506010036 | 72 | 353 | 3.5 | 6.1 | 0.00 | 0.00 | 0.00 | 54 | 1017.4 |
| 20260506003036 | 72 | 343 | 2.6 | 7.8 | 0.00 | 0.00 | 0.00 | 54 | 1017.4 |
| 20260506001534 | 72 | 347 | 3.5 | 7.8 | 0.00 | 0.00 | 0.00 | 54 | 1017.4 |
| 20260506000034 | 72 | 333 | 3.5 | 7.0 | 0.00 | 0.00 | 0.00 | 53 | 1017.5 |
| 20260505234536 | 73 | 328 | 2.6 | 7.0 | 0.00 | 0.00 | 0.00 | 53 | 1017.6 |
| 20260505230038 | 72 | 299 | 2.6 | 7.0 | 0.00 | 0.00 | 0.00 | 53 | 1017.7 |
| 20260505224536 | 72 | 307 | 3.5 | 7.8 | 0.00 | 0.00 | 0.00 | 53 | 1017.7 |
| 20260505223036 | 72 | 284 | 3.5 | 7.8 | 0.00 | 0.00 | 0.00 | 53 | 1017.8 |
| 20260505221653 | 71 | 296 | 2.6 | 8.7 | 0.00 | 0.00 | 0.00 | 54 | 1017.8 |
| 20260505220036 | 72 | 322 | 3.5 | 7.8 | 0.00 | 0.00 | 0.00 | 54 | 1018.0 |
| 20260505214537 | 71 | 293 | 2.6 | 7.0 | 0.00 | 0.00 | 0.00 | 54 | 1018.1 |
| 20260505203035 | 69 | 334 | 3.5 | 8.7 | 0.00 | 0.00 | 0.00 | 57 | 1018.3 |
| 20260505201610 | 69 | 329 | 2.6 | 7.8 | 0.00 | 0.00 | 0.00 | 56 | 1018.4 |
| 20260505200038 | 68 | 291 | 2.6 | 6.1 | 0.00 | 0.00 | 0.00 | 57 | 1018.4 |
| 20260505193031 | 67 | 322 | 2.6 | 8.7 | 0.00 | 0.00 | 0.00 | 57 | 1018.5 |
| 20260505191537 | 67 | 308 | 2.6 | 7.8 | 0.00 | 0.00 | 0.00 | 57 | 1018.6 |
| 20260505190143 | 66 | 314 | 3.5 | 7.0 | 0.00 | 0.00 | 0.00 | 59 | 1018.6 |
| 20260505184535 | 65 | 355 | 2.6 | 10.4 | 0.00 | 0.00 | 0.00 | 59 | 1018.7 |
| 20260505180037 | 64 | 327 | 3.5 | 7.0 | 0.00 | 0.00 | 0.00 | 61 | 1018.6 |
| 20260505173035 | 63 | 338 | 3.5 | 7.0 | 0.00 | 0.00 | 0.00 | 63 | 1018.5 |
| 20260505171609 | 62 | 327 | 2.6 | 6.1 | 0.00 | 0.00 | 0.00 | 63 | 1018.5 |
| 20260505170036 | 62 | 312 | 2.6 | 7.8 | 0.00 | 0.00 | 0.00 | 65 | 1018.4 |
| 20260505164536 | 60 | 317 | 1.7 | 6.1 | 0.00 | 0.00 | 0.00 | 67 | 1018.3 |
| 20260505161530 | 58 | 349 | 3.5 | 6.1 | 0.00 | 0.00 | 0.00 | 70 | 1018.3 |
| 20260505151644 | 59 | 337 | 1.7 | 4.3 | 0.00 | 0.00 | 0.00 | 67 | 1017.9 |
| 20260505121534 | 49 | 93 | 4.3 | 6.1 | 0.00 | 0.00 | 0.00 | 85 | 1017.0 |
| 20260505120043 | 49 | 95 | 4.3 | 6.1 | 0.00 | 0.00 | 0.00 | 85 | 1017.0 |
| 20260505120036 | 49 | 96 | 4.3 | 7.0 | 0.00 | 0.00 | 0.00 | 85 | 1017.0 |
| 20260505114646 | 50 | 102 | 3.5 | 6.1 | 0.00 | 0.00 | 0.00 | 84 | 1017.0 |
| 20260505113037 | 50 | 98 | 3.5 | 6.1 | 0.00 | 0.00 | 0.00 | 83 | 1017.0 |
| 20260505100046 | 52 | 165 | 2.6 | 4.3 | 0.00 | 0.00 | 0.00 | 79 | 1016.7 |
| 20260505084537 | 51 | 105 | 3.5 | 5.2 | 0.00 | 0.00 | 0.00 | 79 | 1016.5 |
| 20260505080037 | 56 | 102 | 2.6 | 5.2 | 0.00 | 0.00 | 0.00 | 73 | 1016.3 |